Change the Weather History Date:

Friday, December 6, 2013

  Actual Average Record
Temperature  
Mean Temperature 64 °F 57 °F  
Max Temperature 82 °F 66 °F 82 °F (2013)
Min Temperature 45 °F 49 °F 32 °F (1962)
Degree Days  
Heating Degree Days 1 9  
Month to date heating degree days 10 50  
Since 1 July heating degree days 210 214  
Cooling Degree Days 0 1  
Month to date cooling degree days 26 6  
Year to date cooling degree days 2985 2984  
Growing Degree Days 14 (Base 50)    
Moisture  
Dew Point 62 °F    
Average Humidity 85    
Maximum Humidity 100    
Minimum Humidity 69    
Precipitation  
Precipitation 0.10 in 0.16 in 1.79 in (1989)
Month to date precipitation 0.36 0.99  
Year to date precipitation 63.53 58.20  
Snow  
Snow 0.00 in - - ()
Month to date snowfall 0.0  
Since 1 July snowfall 0.0  
Snow Depth 0.00 in    
Sea Level Pressure  
Sea Level Pressure 30.04 in    
Wind  
Wind Speed 13 mph (WSW)    
Max Wind Speed 23 mph    
Max Gust Speed 29 mph    
Visibility 9 miles    
Events Rain    
T = Trace of Precipitation, MM = Missing Value Source: NWS Daily Summary

Daily Weather History Graph

Daily Weather History Graph

Search for Another Location

Airport or City:

Trip Planner

Search our weather history database for the weather conditions in past years. The results will help you decide how hot, cold, wet, or windy it might be!

Date:

Astronomy

Dec. 06, 2013 Rise Set
Actual Time 6:42 AM CST 5:00 PM CST
Civil Twilight 6:16 AM CST 5:26 PM CST
Nautical Twilight 5:46 AM CST 5:55 PM CST
Astronomical Twilight 5:17 AM CST 6:25 PM CST
Moon 9:57 AM CST 9:20 PM CST
Length of Visible Light 11h 09m
Length of Day
10h 17m
Waxing Crescent, 19% of the Moon is Illuminated
Dec 6
Waxing Crescent
Dec 9
First Quarter
Dec 17
Full
Dec 25
Last Quarter
Jan 1
New

Hourly Weather History & Observations

Time (CST) Temp. Heat Index Dew Point Humidity Pressure Visibility Wind Dir Wind Speed Gust Speed Precip Events Conditions
12:53 AM 75.0 °F - 72.0 °F 90% 29.95 in 10.0 mi South 16.1 mph - N/A   Overcast
1:53 AM 75.0 °F - 72.0 °F 90% 29.95 in 10.0 mi South 12.7 mph - N/A   Overcast
2:53 AM 75.0 °F - 71.1 °F 87% 29.94 in 10.0 mi South 16.1 mph - N/A   Overcast
3:53 AM 73.9 °F - 71.1 °F 91% 29.94 in 9.0 mi South 15.0 mph - N/A   Overcast
4:53 AM 73.9 °F - 71.1 °F 91% 29.94 in 10.0 mi South 15.0 mph - N/A   Overcast
5:53 AM 73.0 °F - 71.1 °F 93% 29.96 in 9.0 mi South 13.8 mph 18.4 mph N/A   Overcast
6:51 AM 73.4 °F - 71.6 °F 94% 29.99 in 10.0 mi South 15.0 mph - N/A   Overcast
6:53 AM 73.9 °F - 71.1 °F 91% 29.98 in 10.0 mi South 11.5 mph - N/A   Overcast
7:25 AM 73.4 °F - 71.6 °F 94% 30.01 in 10.0 mi South 11.5 mph - N/A   Overcast
7:46 AM 73.4 °F - 71.6 °F 94% 30.02 in 10.0 mi South 9.2 mph - N/A   Overcast
7:53 AM 73.9 °F - 71.1 °F 91% 30.00 in 10.0 mi South 10.4 mph 18.4 mph N/A   Overcast
8:53 AM 75.9 °F - 71.1 °F 85% 30.01 in 10.0 mi South 12.7 mph - N/A   Overcast
9:53 AM 78.1 °F - 72.0 °F 81% 30.01 in 10.0 mi South 20.7 mph - N/A   Mostly Cloudy
10:53 AM 80.1 °F 83.8 °F 72.0 °F 76% 30.01 in 10.0 mi South 17.3 mph - N/A   Mostly Cloudy
11:00 AM 80.6 °F 84.6 °F 71.6 °F 74% 30.02 in 10.0 mi SSW 17.3 mph 24.2 mph N/A   Mostly Cloudy
11:53 AM 80.1 °F 83.6 °F 71.1 °F 74% 29.99 in 10.0 mi SSW 16.1 mph - N/A   Mostly Cloudy
12:53 PM 80.1 °F 83.2 °F 70.0 °F 71% 29.96 in 10.0 mi SSW 18.4 mph - N/A   Mostly Cloudy
1:12 PM 80.6 °F 84.6 °F 71.6 °F 74% 29.98 in 10.0 mi SSW 21.9 mph 35.7 mph N/A   Mostly Cloudy
1:41 PM 80.6 °F 83.9 °F 69.8 °F 70% 29.98 in 10.0 mi SSW 20.7 mph 26.5 mph N/A   Mostly Cloudy
1:53 PM 79.0 °F - 71.1 °F 77% 29.96 in 10.0 mi SW 21.9 mph 28.8 mph N/A   Mostly Cloudy
2:53 PM 79.0 °F - 71.1 °F 77% 29.95 in 10.0 mi SSW 23.0 mph - N/A   Scattered Clouds
3:13 PM 78.8 °F - 69.8 °F 74% 29.97 in 10.0 mi SSW 21.9 mph 25.3 mph N/A   Mostly Cloudy
3:24 PM 78.8 °F - 71.6 °F 78% 29.97 in 10.0 mi SSW 19.6 mph - N/A   Scattered Clouds
3:53 PM 77.0 °F - 72.0 °F 84% 29.96 in 9.0 mi SSW 16.1 mph - 0.00 in   Overcast
4:14 PM 64.4 °F - 59.0 °F 83% 30.02 in 7.0 mi NW 21.9 mph 26.5 mph N/A   Overcast
4:26 PM 62.6 °F - 59.0 °F 88% 30.02 in 6.0 mi NW 24.2 mph - N/A   Overcast
4:45 PM 60.8 °F - 59.0 °F 94% 30.04 in 1.8 mi WNW 20.7 mph - 0.03 in Rain Rain
4:53 PM 61.0 °F - 57.9 °F 90% 30.03 in 2.5 mi NW 23.0 mph - 0.03 in Rain Light Rain
4:58 PM 60.8 °F - 57.2 °F 88% 30.05 in 6.0 mi NW 23.0 mph - 0.00 in   Overcast
5:08 PM 60.8 °F - 55.4 °F 82% 30.06 in 9.0 mi NNW 21.9 mph - 0.00 in   Overcast
5:21 PM 59.0 °F - 55.4 °F 88% 30.07 in 10.0 mi NW 23.0 mph - 0.00 in   Overcast
5:53 PM 55.9 °F - 53.1 °F 90% 30.06 in 6.0 mi NW 19.6 mph - 0.01 in Rain Light Rain
6:53 PM 53.1 °F - 50.0 °F 89% 30.11 in 10.0 mi NNW 19.6 mph - 0.00 in   Overcast
7:42 PM 53.6 °F - 48.2 °F 82% 30.14 in 10.0 mi North 15.0 mph - N/A   Overcast
7:53 PM 53.1 °F - 48.9 °F 86% 30.12 in 10.0 mi North 13.8 mph - 0.01 in Rain Light Rain
8:10 PM 53.6 °F - 48.2 °F 82% 30.15 in 10.0 mi North 11.5 mph - 0.00 in Rain Light Rain
8:46 PM 51.8 °F - 48.2 °F 88% 30.16 in 10.0 mi North 13.8 mph - 0.01 in   Overcast
8:53 PM 53.1 °F - 48.9 °F 86% 30.14 in 10.0 mi NNW 16.1 mph - 0.01 in   Overcast
9:53 PM 51.1 °F - 46.9 °F 86% 30.17 in 10.0 mi NNW 20.7 mph - N/A   Overcast
10:36 PM 50.0 °F - 46.4 °F 87% 30.20 in 10.0 mi North 18.4 mph 23.0 mph 0.00 in Rain Light Rain
10:53 PM 48.9 °F - 46.0 °F 90% 30.19 in 7.0 mi North 18.4 mph - 0.04 in Rain Light Rain
11:04 PM 48.2 °F - 46.4 °F 93% 30.21 in 9.0 mi North 17.3 mph - 0.01 in Rain Light Rain
11:36 PM 48.2 °F - 44.6 °F 87% 30.22 in 10.0 mi North 20.7 mph - 0.01 in   Overcast
11:53 PM 48.0 °F - 44.1 °F 86% 30.21 in 7.0 mi North 18.4 mph - 0.01 in Rain Light Rain